Regional Weather Roundup
Issued by NWS Columbia, SC

Home | Current Version | Previous Version | Text Only | Print | Product List | Glossary On
Versions: 1 2 3 4 5 6 7 8 9 10 11 12 13 14 15 16 17 18 19 20 21 22 23 24 25 26 27 28 29 30 31 32 33 34 35 36 37 38 39 40 41 42 43 44 45 46 47 48 49 50
000
ASUS42 KCAE 280110
RWRCAE
REGIONAL WEATHER ROUNDUP
NATIONAL WEATHER SERVICE COLUMBIA SC
900 PM EDT SAT MAY 27 2017

NOTE: "FAIR" INDICATES FEW OR NO CLOUDS BELOW 12,000 FEET WITH NO
SIGNIFICANT WEATHER AND/OR OBSTRUCTIONS TO VISIBILITY.

NOT ALL STATIONS ARE QUALITY CONTROLLED BY THE NATIONAL
WEATHER SERVICE. USE DATA WITH CAUTION...ESPECIALLY
DEWPOINT OBSERVATIONS.

SCZ001>056-GAZ040-063>065-077-280200-
...UPSTATE SOUTH CAROLINA...

CITY           SKY/WX    TMP DP  RH WIND       PRES   REMARKS
ANDERSON       CLEAR     77  67  71 S3        29.92F
SPARTANBURG    CLOUDY    77  63  61 CALM      29.92R
CLEMSON        CLEAR     79  65  62 VRB3      29.93S
GREENVILLE     CLOUDY    80  65  59 SW6       29.94R
GREENWOOD      CLEAR     76  64  66 SW7       29.94S
GREER          CLOUDY    78  64  61 SW7       29.92R
ROCK HILL      CLOUDY    74  67  78 SW6       29.92R
CHESTER        CLOUDY    77  63  61 CALM      29.93R
LAURENS        CLEAR     77  66  69 SW5       29.92F


...CENTRAL SOUTH CAROLINA...

CITY           SKY/WX    TMP DP  RH WIND       PRES   REMARKS
COLUMBIA APT   PTCLDY    81  63  54 W6        29.91S
COLUMBIA OWENS CLEAR     85  61  44 W5        29.92S
MCENTIRE ANGB  CLEAR     78  64  61 CALM      29.92R
ORANGEBURG     CLEAR     81  57  43 W8        29.93R
SUMTER SHAW    CLEAR     80  62  52 W6        29.90R
NEWBERRY       CLEAR     77  66  69 SW5       29.96S
AIKEN          FAIR      75  55  50 W5        29.98S
BARNWELL       FAIR      79  64  61 CALM      29.94S
MANNING        FAIR      75  68  78 SW9       29.92R
CAMDEN         FAIR      81  66  61 CALM      29.92R
LANCASTER      CLOUDY    77  70  78 S3        29.92S
WINNSBORO      CLEAR     79  64  61 SW6       29.92S


...EASTERN AND COASTAL SOUTH CAROLINA...

CITY           SKY/WX    TMP DP  RH WIND       PRES   REMARKS
N MYRTLE BCH   CLEAR     77  72  84 SW13      29.90S
CONWAY         FAIR      73  70  88 CALM      29.90S
MARION         FAIR      79  66  65 CALM      29.90R
HARTSVILLE     FAIR      77  64  65 CALM      29.91R
FLORENCE       CLEAR     82  66  58 NW3       29.90R
DARLINGTON     CLEAR     80  67  64 W5        29.92R
CHARLESTON APT CLEAR     76  68  76 S7        29.93R
MOUNT PLEASANT FAIR      79  70  73 SW5       29.93R
WALTERBORO     CLEAR     79  63  57 CALM      29.94R
BEAUFORT       CLEAR     80  70  71 CALM      29.93R


...EASTERN GEORGIA...

CITY           SKY/WX    TMP DP  RH WIND       PRES   REMARKS
AUGUSTA BUSH F CLEAR     80  60  50 W3        29.93S
AUGUSTA DANIEL CLEAR     84  53  34 W3        29.95S
THOMSON        MOCLDY    76  62  62 NW5       30.00S HAZE
WASHINGTON     FAIR      81  70  69 SW5       29.95S
CLAXTON        FAIR      74  69  84 CALM      29.94R
SYLVANIA       CLEAR     80  64  57 CALM      29.94S
STATESBORO     CLEAR     77  65  66 CALM      29.94R
SAVANNAH       CLEAR     83  60  45 SW6       29.92F


...SOUTHERN NORTH CAROLINA...

CITY           SKY/WX    TMP DP  RH WIND       PRES   REMARKS
CHARLOTTE      MOCLDY    78  66  66 S6        29.91S
MONROE         CLOUDY    76  65  68 S3        29.91R
WADESBORO      CLEAR     78  67  68 CALM      29.90S
RUTHERFORDTON  CLOUDY    77  67  71 CALM      29.93S
ASHEVILLE      CLOUDY    75  63  66 CALM      29.98R

$$



USA.gov is the U.S. government's official web portal to all federal, state and local government web resources and services.